Weather History for KCBM - December, 2012

Change the Weather History Date:

Thursday, December 6, 2012

  Actual Average Record
Temperature  
Mean Temperature 60 °F -  
Max Temperature 70 °F 56 °F 78 °F (1998)
Min Temperature 49 °F 38 °F 21 °F (2005)
Degree Days  
Heating Degree Days 6    
Growing Degree Days 10 (Base 50)    
Moisture  
Dew Point 54 °F    
Average Humidity 99    
Maximum Humidity 100    
Minimum Humidity 62    
Precipitation  
Precipitation 0.00 in - - ()
Sea Level Pressure  
Sea Level Pressure 30.03 in    
Wind  
Wind Speed 1 mph (SE)    
Max Wind Speed 9 mph    
Max Gust Speed -    
Visibility 2 miles    
Events Fog    
Averages and records for this station are not official NWS values.
T = Trace of Precipitation, MM = Missing Value Source: NWS Daily Summary

Daily Weather History Graph

Daily Weather History Graph

Search for Another Location

Airport or City:

Trip Planner

Search our weather history database for the weather conditions in past years. The results will help you decide how hot, cold, wet, or windy it might be!

Date:

Astronomy

Dec. 06, 2012 Rise Set
Actual Time 6:44 AM CST 4:45 PM CST
Civil Twilight 6:17 AM CST 5:12 PM CST
Nautical Twilight 5:46 AM CST 5:43 PM CST
Astronomical Twilight 5:16 AM CST 6:13 PM CST
Moon No Moon Rise 11:53 AM CST (12/6)
Length of Visible Light 10h 55m
Length of Day
10h 00m
Waning Gibbous, 49% of the Moon is Illuminated
Dec 6
Waning Gibbous
Dec 13
New
Dec 19
First Quarter
Dec 28
Full
Jan 4
Last Quarter

Hourly Weather History & Observations

Time (CST) Temp. Dew Point Humidity Pressure Visibility Wind Dir Wind Speed Gust Speed Precip Events Conditions
12:31 AM 55.4 °F 55.4 °F 100% 30.09 in 7.0 mi North 5.8 mph - N/A   Overcast
12:55 AM 55.8 °F 55.8 °F 100% 30.08 in 7.0 mi NNE 3.5 mph - N/A   Overcast
1:30 AM 55.4 °F 55.4 °F 100% 30.08 in 7.0 mi Calm Calm - N/A   Overcast
1:55 AM 55.4 °F 55.4 °F 100% 30.08 in 8.0 mi Calm Calm - N/A   Overcast
2:02 AM 55.4 °F 55.4 °F 100% 30.08 in 6.0 mi Calm Calm - N/A   Overcast
2:05 AM 55.4 °F 55.4 °F 100% 30.08 in 4.0 mi Calm Calm - N/A   Overcast
2:07 AM 55.4 °F 55.4 °F 100% 30.08 in 3.0 mi Calm Calm - N/A   Overcast
2:09 AM 55.4 °F 55.4 °F 100% 30.08 in 2.5 mi NNE 3.5 mph - N/A   Overcast
2:12 AM 55.4 °F 55.4 °F 100% 30.08 in 1.8 mi Calm Calm - N/A   Overcast
2:13 AM 55.4 °F 55.4 °F 100% 30.08 in 1.5 mi Calm Calm - N/A   Overcast
2:14 AM 55.4 °F 55.4 °F 100% 30.08 in 1.2 mi Calm Calm - N/A   Overcast
2:15 AM 55.4 °F 55.4 °F 100% 30.08 in 1.2 mi NNE 3.5 mph - N/A   Overcast
2:16 AM 55.4 °F 55.4 °F 100% 30.08 in 1.0 mi NNE 3.5 mph - N/A   Mist
2:17 AM 55.4 °F 55.4 °F 100% 30.08 in 1.0 mi Calm Calm - N/A   Mist
2:18 AM 55.4 °F 55.4 °F 100% 30.08 in 1.0 mi Calm Calm - N/A   Mist
2:19 AM 55.4 °F 55.4 °F 100% 30.08 in 0.8 mi Calm Calm - N/A   Mist
2:24 AM 55.4 °F 55.4 °F 100% 30.08 in 0.8 mi North 3.5 mph - N/A   Mist
2:30 AM 55.4 °F 55.4 °F 100% 30.08 in 0.5 mi Calm Calm - N/A Fog Fog
2:36 AM 55.4 °F 55.4 °F 100% 30.08 in 0.5 mi NNW 3.5 mph - N/A Fog Fog
2:40 AM 55.4 °F 55.4 °F 100% 30.08 in 0.5 mi Calm Calm - N/A Fog Fog
2:46 AM 55.4 °F 55.4 °F 100% 30.08 in 0.8 mi NNW 3.5 mph - N/A   Mist
2:48 AM 55.4 °F 55.4 °F 100% 30.08 in 0.8 mi NNW 3.5 mph - N/A   Mist
2:55 AM 55.4 °F 55.4 °F 100% 30.08 in 0.8 mi NNW 4.6 mph - N/A   Mist
3:12 AM 55.4 °F 55.4 °F 100% 30.07 in 1.0 mi Calm Calm - N/A   Mist
3:21 AM 55.4 °F 55.4 °F 100% 30.08 in 0.8 mi Calm Calm - N/A   Mist
3:34 AM 55.4 °F 55.4 °F 100% 30.08 in 0.8 mi Calm Calm - N/A   Mist
3:35 AM 55.4 °F 55.4 °F 100% 30.08 in 0.5 mi Calm Calm - N/A Fog Fog
3:41 AM 55.4 °F 55.4 °F 100% 30.08 in 0.5 mi Calm Calm - N/A Fog Fog
3:43 AM 55.4 °F 55.4 °F 100% 30.08 in 0.5 mi Calm Calm - N/A Fog Fog
3:55 AM 55.9 °F 55.9 °F 100% 30.08 in 0.5 mi Calm Calm - N/A Fog Fog
3:58 AM 55.4 °F 55.4 °F 100% 30.08 in 0.2 mi Calm Calm - N/A Fog Fog
4:55 AM 55.0 °F 55.0 °F 100% 30.07 in 0.2 mi Calm Calm - N/A Fog Fog
5:04 AM 55.4 °F 55.4 °F 100% 30.07 in 0.5 mi Calm Calm - N/A Fog Fog
5:22 AM 55.4 °F 55.4 °F 100% 30.07 in 0.5 mi Calm Calm - N/A Fog Fog
5:44 AM 55.4 °F 55.4 °F 100% 30.07 in 0.8 mi Calm Calm - N/A   Mist
5:51 AM 55.4 °F 55.4 °F 100% 30.07 in 0.8 mi Calm Calm - N/A   Mist
5:55 AM 54.9 °F 54.9 °F 100% 30.07 in 0.8 mi Calm Calm - N/A   Mist
5:57 AM 55.4 °F 55.4 °F 100% 30.07 in 1.0 mi Calm Calm - N/A   Mist
6:14 AM 55.4 °F 55.4 °F 100% 30.08 in 1.0 mi Calm Calm - N/A   Mist
6:18 AM 55.4 °F 55.4 °F 100% 30.08 in 1.2 mi Calm Calm - N/A   Mostly Cloudy
6:22 AM 55.4 °F 55.4 °F 100% 30.08 in 1.5 mi Calm Calm - N/A   Mostly Cloudy
6:24 AM 55.4 °F 55.4 °F 100% 30.08 in 1.5 mi Calm Calm - N/A   Mostly Cloudy
6:27 AM 55.4 °F 55.4 °F 100% 30.08 in 1.2 mi Calm Calm - N/A   Mostly Cloudy
6:30 AM 53.6 °F 53.6 °F 100% 30.08 in 1.0 mi Calm Calm - N/A   Mist
6:34 AM 53.6 °F 53.6 °F 100% 30.08 in 0.8 mi Calm Calm - N/A   Mist
6:35 AM 55.4 °F 55.4 °F 100% 30.08 in 0.8 mi Calm Calm - N/A   Mist
6:41 AM 55.4 °F 55.4 °F 100% 30.08 in 0.5 mi Calm Calm - N/A Fog Fog
6:47 AM 55.4 °F 55.4 °F 100% 30.08 in 0.5 mi Calm Calm - N/A Fog Fog
6:49 AM 55.4 °F 55.4 °F 100% 30.08 in 0.2 mi Calm Calm - N/A Fog Fog
6:54 AM 53.6 °F 53.6 °F 100% 30.08 in 0.5 mi Calm Calm - N/A Fog Fog
6:55 AM 54.3 °F 54.3 °F 100% 30.08 in 0.5 mi Calm Calm - N/A Fog Fog
7:05 AM 53.6 °F 53.6 °F 100% 30.08 in 0.5 mi Calm Calm - N/A Fog Fog
7:06 AM 53.6 °F 53.6 °F 100% 30.08 in 0.5 mi Calm Calm - N/A Fog Fog
7:10 AM 55.4 °F 55.4 °F 100% 30.08 in 0.8 mi Calm Calm - N/A   Scattered Clouds
7:12 AM 55.4 °F 55.4 °F 100% 30.08 in 1.0 mi Calm Calm - N/A   Mostly Cloudy
7:13 AM 55.4 °F 55.4 °F 100% 30.08 in 1.5 mi Calm Calm - N/A   Mostly Cloudy
7:14 AM 55.4 °F 55.4 °F 100% 30.08 in 2.0 mi Calm Calm - N/A   Mostly Cloudy
7:17 AM 55.4 °F 55.4 °F 100% 30.09 in 3.0 mi Calm Calm - N/A   Mostly Cloudy
7:20 AM 55.4 °F 55.4 °F 100% 30.08 in 4.0 mi Calm Calm - N/A   Mostly Cloudy
7:22 AM 55.4 °F 55.4 °F 100% 30.08 in 5.0 mi Calm Calm - N/A   Mostly Cloudy
7:55 AM 55.6 °F 55.6 °F 100% 30.09 in 10.0 mi Calm Calm - N/A   Mostly Cloudy
8:55 AM 56.8 °F 56.8 °F 100% 30.09 in 10.0 mi SSE 3.5 mph - N/A   Scattered Clouds
9:19 AM 57.2 °F 57.2 °F 100% 30.09 in 10.0 mi South 5.8 mph - N/A   Mostly Cloudy
9:55 AM 58.8 °F 58.8 °F 100% 30.09 in 10.0 mi SSE 5.8 mph - N/A   Scattered Clouds
10:55 AM 62.4 °F 58.6 °F 87% 30.07 in 10.0 mi SSE 4.6 mph - N/A   Clear
11:55 AM 63.9 °F 57.7 °F 80% 30.04 in 10.0 mi South 5.8 mph - N/A   Partly Cloudy
12:55 PM 65.5 °F 57.2 °F 75% 30.02 in 10.0 mi SSE 4.6 mph - N/A   Partly Cloudy
1:55 PM 68.4 °F 57.6 °F 68% 30.00 in 10.0 mi ESE 5.8 mph - N/A   Clear
2:55 PM 69.8 °F 57.2 °F 64% 29.99 in 10.0 mi SE 5.8 mph - N/A   Clear
3:55 PM 70.2 °F 56.7 °F 62% 29.99 in 10.0 mi SE 4.6 mph - N/A   Clear
4:55 PM 65.5 °F 57.7 °F 76% 29.99 in 10.0 mi Calm Calm - N/A   Clear
5:55 PM 59.5 °F 57.2 °F 92% 29.99 in 10.0 mi Calm Calm - N/A   Scattered Clouds
6:55 PM 55.8 °F 55.8 °F 100% 29.99 in 10.0 mi Calm Calm - N/A   Clear
7:22 PM 57.2 °F 57.2 °F 100% 29.99 in 3.0 mi Calm Calm - N/A   Clear
7:23 PM 57.2 °F 57.2 °F 100% 29.99 in 2.0 mi Calm Calm - N/A   Clear
7:24 PM 57.2 °F 55.4 °F 94% 29.99 in 1.5 mi Calm Calm - N/A   Clear
7:25 PM 55.4 °F 55.4 °F 100% 29.99 in 1.2 mi Calm Calm - N/A   Clear
7:32 PM 55.4 °F 55.4 °F 100% 29.99 in 1.5 mi Calm Calm - N/A   Clear
7:33 PM 55.4 °F 55.4 °F 100% 29.99 in 2.0 mi Calm Calm - N/A   Clear
7:34 PM 55.4 °F 55.4 °F 100% 29.99 in 3.0 mi Calm Calm - N/A   Clear
7:35 PM 55.4 °F 55.4 °F 100% 29.99 in 6.0 mi Calm Calm - N/A   Clear
7:53 PM 55.4 °F 55.4 °F 100% 29.99 in 4.0 mi Calm Calm - N/A   Clear
7:55 PM 54.5 °F 54.5 °F 100% 29.99 in 4.0 mi Calm Calm - N/A   Clear
8:00 PM 55.4 °F 55.4 °F 100% 29.99 in 5.0 mi Calm Calm - N/A   Clear
8:05 PM 55.4 °F 55.4 °F 100% 29.99 in 4.0 mi Calm Calm - N/A   Clear
8:06 PM 55.4 °F 55.4 °F 100% 29.99 in 3.0 mi Calm Calm - N/A   Clear
8:08 PM 55.4 °F 55.4 °F 100% 29.99 in 2.5 mi Calm Calm - N/A   Clear
8:11 PM 55.4 °F 55.4 °F 100% 29.99 in 1.8 mi Calm Calm - N/A   Clear
8:12 PM 55.4 °F 55.4 °F 100% 29.99 in 1.5 mi Calm Calm - N/A   Clear
8:14 PM 55.4 °F 55.4 °F 100% 29.99 in 1.8 mi Calm Calm - N/A   Clear
8:15 PM 55.4 °F 55.4 °F 100% 29.99 in 2.0 mi Calm Calm - N/A   Clear
8:18 PM 55.4 °F 55.4 °F 100% 29.99 in 3.0 mi Calm Calm - N/A   Clear
8:22 PM 53.6 °F 53.6 °F 100% 29.99 in 2.0 mi Calm Calm - N/A   Clear
8:23 PM 53.6 °F 53.6 °F 100% 29.99 in 1.8 mi Calm Calm - N/A   Clear
8:24 PM 53.6 °F 53.6 °F 100% 29.99 in 1.2 mi Calm Calm - N/A   Clear
8:25 PM 53.6 °F 53.6 °F 100% 29.99 in 1.0 mi Calm Calm - N/A   Clear
8:26 PM 53.6 °F 53.6 °F 100% 29.99 in 0.8 mi Calm Calm - N/A   Clear
8:28 PM 53.6 °F 53.6 °F 100% 29.99 in 0.5 mi Calm Calm - N/A Fog Fog
8:29 PM 53.6 °F 53.6 °F 100% 29.99 in 0.5 mi Calm Calm - N/A Fog Fog
8:30 PM 53.6 °F 53.6 °F 100% 29.99 in 0.5 mi Calm Calm - N/A Fog Fog
8:31 PM 53.6 °F 53.6 °F 100% 29.99 in 0.5 mi Calm Calm - N/A Fog Fog
8:34 PM 53.6 °F 53.6 °F 100% 29.99 in 0.2 mi Calm Calm - N/A Fog Fog
8:44 PM 51.8 °F 51.8 °F 100% 29.99 in 0.5 mi Calm Calm - N/A Fog Fog
8:45 PM 51.8 °F 51.8 °F 100% 29.99 in 0.5 mi Calm Calm - N/A Fog Fog
8:46 PM 53.6 °F 53.6 °F 100% 29.99 in 0.5 mi Calm Calm - N/A Fog Fog
8:48 PM 53.6 °F 53.6 °F 100% 29.99 in 0.8 mi Calm Calm - N/A   Clear
8:50 PM 53.6 °F 53.6 °F 100% 29.99 in 1.0 mi Calm Calm - N/A   Clear
8:51 PM 53.6 °F 53.6 °F 100% 29.99 in 1.2 mi Calm Calm - N/A   Clear
8:52 PM 53.6 °F 53.6 °F 100% 29.99 in 2.0 mi Calm Calm - N/A   Clear
8:53 PM 53.6 °F 53.6 °F 100% 29.99 in 4.0 mi Calm Calm - N/A   Clear
8:54 PM 53.6 °F 53.6 °F 100% 29.99 in 7.0 mi Calm Calm - N/A   Clear
8:55 PM 53.2 °F 53.2 °F 100% 29.99 in 9.0 mi Calm Calm - N/A   Clear
9:16 PM 53.6 °F 53.6 °F 100% 29.99 in 4.0 mi Calm Calm - N/A   Clear
9:19 PM 51.8 °F 51.8 °F 100% 29.99 in 3.0 mi Calm Calm - N/A   Clear
9:24 PM 51.8 °F 51.8 °F 100% 29.99 in 4.0 mi Calm Calm - N/A   Clear
9:26 PM 51.8 °F 51.8 °F 100% 29.99 in 6.0 mi Calm Calm - N/A   Clear
9:29 PM 51.8 °F 51.8 °F 100% 29.99 in 2.5 mi Calm Calm - N/A   Clear
9:30 PM 51.8 °F 51.8 °F 100% 29.99 in 1.5 mi Calm Calm - N/A   Clear
9:31 PM 51.8 °F 51.8 °F 100% 29.99 in 1.2 mi Calm Calm - N/A   Clear
9:32 PM 51.8 °F 51.8 °F 100% 29.99 in 1.0 mi Calm Calm - N/A   Clear
9:33 PM 51.8 °F 51.8 °F 100% 29.99 in 0.8 mi Calm Calm - N/A   Clear
9:35 PM 51.8 °F 51.8 °F 100% 29.99 in 0.5 mi Calm Calm - N/A Fog Fog
9:37 PM 51.8 °F 51.8 °F 100% 29.99 in 0.5 mi Calm Calm - N/A Fog Fog
9:38 PM 51.8 °F 51.8 °F 100% 29.99 in 0.5 mi Calm Calm - N/A Fog Fog
9:40 PM 51.8 °F 51.8 °F 100% 29.99 in 0.5 mi Calm Calm - N/A Fog Fog
9:41 PM 51.8 °F 51.8 °F 100% 29.99 in 0.5 mi Calm Calm - N/A Fog Fog
9:52 PM 51.8 °F 51.8 °F 100% 29.99 in 0.5 mi Calm Calm - N/A Fog Fog
9:53 PM 51.8 °F 51.8 °F 100% 29.99 in 0.5 mi Calm Calm - N/A Fog Fog
9:55 PM 50.9 °F 50.9 °F 100% 29.99 in 0.5 mi Calm Calm - N/A Fog Fog
9:57 PM 50.0 °F 50.0 °F 100% 29.99 in 0.8 mi Calm Calm - N/A   Clear
10:02 PM 51.8 °F 51.8 °F 100% 29.99 in 1.0 mi Calm Calm - N/A   Clear
10:03 PM 51.8 °F 51.8 °F 100% 29.99 in 1.0 mi Calm Calm - N/A   Clear
10:11 PM 51.8 °F 51.8 °F 100% 29.99 in 1.0 mi Calm Calm - N/A   Clear
10:12 PM 51.8 °F 51.8 °F 100% 29.99 in 1.0 mi Calm Calm - N/A   Clear
10:13 PM 51.8 °F 51.8 °F 100% 29.99 in 1.0 mi Calm Calm - N/A   Clear
10:14 PM 51.8 °F 51.8 °F 100% 29.99 in 1.2 mi Calm Calm - N/A   Clear
10:16 PM 51.8 °F 51.8 °F 100% 29.99 in 1.5 mi Calm Calm - N/A   Clear
10:17 PM 51.8 °F 51.8 °F 100% 29.99 in 2.0 mi Calm Calm - N/A   Clear
10:19 PM 51.8 °F 51.8 °F 100% 29.99 in 3.0 mi Calm Calm - N/A   Clear
10:20 PM 51.8 °F 51.8 °F 100% 29.99 in 4.0 mi Calm Calm - N/A   Clear
10:21 PM 51.8 °F 51.8 °F 100% 29.99 in 5.0 mi Calm Calm - N/A   Clear
10:27 PM 51.8 °F 51.8 °F 100% 29.99 in 3.0 mi Calm Calm - N/A   Clear
10:28 PM 50.0 °F 50.0 °F 100% 29.99 in 2.0 mi Calm Calm - N/A   Clear
10:29 PM 50.0 °F 50.0 °F 100% 29.99 in 1.5 mi Calm Calm - N/A   Clear
10:30 PM 50.0 °F 50.0 °F 100% 29.99 in 1.0 mi Calm Calm - N/A   Clear
10:32 PM 50.0 °F 50.0 °F 100% 29.99 in 0.8 mi Calm Calm - N/A   Clear
10:33 PM 50.0 °F 50.0 °F 100% 29.99 in 0.5 mi Calm Calm - N/A Fog Fog
10:36 PM 50.0 °F 50.0 °F 100% 30.00 in 0.5 mi Calm Calm - N/A Fog Fog
10:37 PM 50.0 °F 50.0 °F 100% 30.00 in 0.5 mi Calm Calm - N/A Fog Fog
10:38 PM 50.0 °F 50.0 °F 100% 30.00 in 0.5 mi Calm Calm - N/A Fog Fog
10:43 PM 51.8 °F 51.8 °F 100% 30.00 in 0.8 mi Calm Calm - N/A   Clear
10:53 PM 50.0 °F 50.0 °F 100% 30.00 in 0.8 mi SSE 3.5 mph - N/A   Clear
10:54 PM 50.0 °F 50.0 °F 100% 30.00 in 0.8 mi SSE 3.5 mph - N/A   Clear
10:55 PM 49.5 °F 49.5 °F 100% 30.00 in 0.8 mi SSE 3.5 mph - N/A   Clear
10:56 PM 50.0 °F 50.0 °F 100% 30.00 in 1.0 mi SSE 3.5 mph - N/A   Clear
10:57 PM 50.0 °F 50.0 °F 100% 30.00 in 1.2 mi SSE 3.5 mph - N/A   Clear
10:58 PM 50.0 °F 50.0 °F 100% 30.00 in 1.5 mi SSE 3.5 mph - N/A   Clear
10:59 PM 50.0 °F 50.0 °F 100% 30.00 in 1.8 mi South 3.5 mph - N/A   Clear
11:00 PM 50.0 °F 50.0 °F 100% 30.00 in 2.5 mi South 3.5 mph - N/A   Clear
11:01 PM 50.0 °F 50.0 °F 100% 30.00 in 4.0 mi South 3.5 mph - N/A   Clear
11:02 PM 50.0 °F 50.0 °F 100% 30.00 in 6.0 mi South 3.5 mph - N/A   Clear
11:55 PM 52.5 °F 52.5 °F 100% 29.99 in 10.0 mi SSE 9.2 mph - N/A   Clear